THOR ALTAIR DEB, 2177

Orbit data source: Space-Track

THOR ALTAIR DEB, 2177 is space debris in SSO originally from a launch on Thu, 31 Mar 1966 UTC launched from the Air Force Western Test Range (AFWTR). Debris objects in space refer to the collection of defunct objects orbiting the Earth. Examples of debris include non-operational satellites, rocket bodies, and fragments generated from explosions, collisions, or faulty payload assembly.

Loading next visibility...
Identifier
2177, 1966-026D
Orbit
SSO
Country
Flag of USUS
Related business
Manufacturer
Unknown
Mission
Spacecraft
Bus & Motor
Unknown
Mass
Unknown
Launch date (UTC)
1966-03-31 (60 years ago)
Launch vehicle
Unknown
Launch site
Air Force Western Test Range (AFWTR)
Object type
Payload
Rocket body
Debris
Shape & HBR
Unknown shape, 0.1 m
Radar Cross Section
Small (<0.1 m²)

Expand to show TLE details & history
Last TLE update: 21 hours ago

TLE from 21 hours ago
0 THOR ALTAIR DEB
1 02177U 66026D   25308.41248011  .00007049  00000-0  84157-3 0  9994
2 02177  98.9494 269.2561 0131493 339.0811  20.5046 14.78566426129603
Epoch: 2025-11-04T09:53Z
TLE epoch observation values (Epoch: 2025-11-04T09:53:58.281Z)
Latitude
0.00003°
Longitude
76.86339°
Altitude
550.612 km
Speed
7.633 km/s
True Right ascension
17h 57m 01s
True Declination
0° 00' 00"
Sunlit
Object was in daylight at epoch
Visualization orbit readout
Latitude
Unknown
Longitude
Unknown
Altitude
Unknown
Speed
Unknown
Apparent Right ascension
Unknown
Apparent Declination
Unknown
Sunlit
N/A
Visualization observer readout
Local Sidereal Time
02:27:11
Azimuth
Unknown
Elevation
Unknown
Doppler factor
Unknown
Orbital elements
Apogee altitude
723.109 km
Perigee altitude
538.78 km
Semi-major axis
7,009.082 km
Eccentricity
0.01315
Inclination
98.9494°
RAAN
269.2561°
Arg. of periapsis
339.0811°
True anomaly
21.04065°
Mean anomaly
20.5046°
Eccentric anomaly
20.77179°
Mean motion
3.69872 °/min
Orbital period
97.33 mins
BSTAR
0.00084157
Loading maneuver chart data...
Computing Atmospheric mass density...
Loading historical data...
Loading historical data...
Loading historical data...
Loading historical data...
Loading historical data...
Loading historical data...
Loading historical data...

Documentation

Showing up to 5 results
|